Flag for U.S.A. Weather past 2 weeks in Mason, Ohio, U.S.A.

Now
53 °F

Passing clouds.


Feels Like: 49 °F
Forecast: 37 / 65 °F
Wind: 15 mph from North

Location: Butler County Regional Airport

Current Time: Mar 31, 2015 at 8:35:41 PM

Latest Report: Mar 31, 2015 at 7:53 PM


Visibility: 10 mi

Pressure: 29.95 "Hg

Humidity: 56%

Dew point: 38 °F

Location of MasonLocation

Historic Weather in Mason — Graph

°F

Mason temperature yesterday

Maximum temperature yesterday: 60 °F (at 3:53 PM)
Minimum temperature yesterday: 32 °F (at 6:53 AM)
Average temperature yesterday: 49 °F

Past Weeks' High & Low Weather Summary

 TemperatureHumidityPressure
High73 °F (Mar 16, 6:53 PM)100% (Mar 26, 8:53 AM)30.42 "Hg (Mar 26, 8:53 AM)
Low18 °F (Mar 29, 3:53 AM)20% (Mar 29, 3:53 PM)29.79 "Hg (Mar 31, 10:53 AM)
Average43 °F61%30.12 "Hg
* Reported Mar 16 6:53 PM — Mar 31 6:53 PM, Mason, Weather by CustomWeather, © 2015

Note: Actual official high and low records may vary slightly from our data, if they occured in-between our weather recording intervals... More about our weather records

Advertising

Mason weather history for previous 24 hours

 ConditionsComfort  
Time TempWeatherWind HumidityBarometerVisibility
6:53 PM
Tue, Mar 31
59 °FPassing clouds.14 mph42%29.92 "Hg10 mi
5:53 PM61 °FPassing clouds.17 mph41%29.89 "Hg10 mi
4:53 PM64 °FPassing clouds.20 mph35%29.87 "Hg10 mi
3:53 PM65 °FLight rain. Sunny.23 mph37%29.85 "Hg10 mi
2:53 PM67 °FSunny.25 mph33%29.83 "Hg10 mi
1:53 PM68 °FSunny.25 mph30%29.81 "Hg10 mi
12:53 PM67 °FSunny.13 mph35%29.80 "Hg10 mi
11:53 AM66 °FSunny.14 mph36%29.80 "Hg10 mi
10:53 AM63 °FSunny.13 mph38%29.79 "Hg10 mi
9:53 AM58 °FSunny.12 mph43%29.80 "Hg10 mi
8:53 AM52 °FSunny.14 mph45%29.80 "Hg10 mi
7:53 AM51 °FClear.10 mph44%29.82 "Hg10 mi
6:53 AM51 °FOvercast.9 mph42%29.82 "Hg10 mi
5:53 AM50 °FOvercast.5 mph44%29.85 "Hg10 mi
4:53 AM48 °FPassing clouds.5 mph50%29.88 "Hg10 mi
3:53 AM49 °FClear.6 mph48%29.90 "Hg10 mi
2:53 AM42 °FPassing clouds.3 mph68%29.95 "Hg10 mi
1:53 AM43 °FClear.No wind62%29.99 "Hg10 mi
12:53 AM40 °FClear.No wind77%30.01 "Hg10 mi
11:53 PM
Mon, Mar 30
46 °FClear.No wind66%30.05 "Hg10 mi
10:53 PM46 °FPassing clouds.No wind68%30.05 "Hg10 mi
9:53 PM45 °FPassing clouds.No wind65%30.06 "Hg10 mi
8:53 PM47 °FSunny.No wind59%30.04 "Hg10 mi
Weather by CustomWeather, © 2015

See weather overviewHow to use our weather pages